User: anonymous   Login
Location: Unspecified
(0.0000°N, 0.0000°E)
Time: 23:11:01
(UTC+00:00)
Language:

Arsene - Orbit

View from above orbital plane
View from above orbital plane
View from above satellite
View from above satellite

Ground track
Ground track

The orbit data is extracted from the following two-line orbital elements,

1 22654U 93031B   18016.47212177 -.00000102  00000-0  00000+0 0  9995
2 22654   1.1453 259.4931 2932796   3.7175 253.2583  1.42205409123695
Epoch (UTC): 16 January 2018 11:19:51
Eccentricity: 0.2932796
inclination: 1.1453°
perigee height: 17228 km
apogee height: 36821 km
right ascension of ascending node: 259.4931°
argument of perigee: 3.7175°
revolutions per day: 1.42205409
mean anomaly at epoch: 253.2583°
orbit number at epoch: 12369

The dashed part of the orbit path shows where the satellite is in the earth's shadow,  

DLR